Regional Weather Roundup
Issued by NWS

Home | Current Version | Previous Version | Graphics & Text | Print | Product List | Glossary On
Versions: 1 2 3 4 5 6 7 8 9 10 11 12 13 14 15 16 17 18 19 20 21 22 23 24 25 26 27 28 29 30 31 32 33 34 35 36 37 38 39 40 41 42 43 44 45 46 47 48 49 50
000
ASUS43 KTOP 270159
RWRKS

WEATHER ROUNDUP FOR KANSAS
NATIONAL WEATHER SERVICE GOODLAND KS
900 PM CDT WED APR 26 2017

NOTE:  "FAIR" INDICATES FEW OR NO CLOUDS BELOW 12,000 FEET WITH NO
SIGNIFICANT WEATHER AND/OR OBSTRUCTIONS TO VISIBILITY.

KSZ001>006-013>018-027>032-041>047-270300-
NORTHWEST KANSAS

CITY           SKY/WX    TMP DP  RH WIND       PRES   REMARKS
GOODLAND       CLEAR     45  31  58 E8        29.69R
HAYS           CLEAR     48  34  58 NE3       29.71R
HILL CITY      CLEAR     44  33  65 NE7       29.70R
RUSSELL        CLEAR     44  33  65 NE6       29.69R
$$

KSZ061>065-074>080-084>089-270300-
SOUTHWEST KANSAS

CITY           SKY/WX    TMP DP  RH WIND       PRES   REMARKS
DODGE CITY     CLEAR     48  33  56 N5        29.72R
ELKHART          N/A     50  31  48 CALM        N/A
GARDEN CITY    CLEAR     50  30  46 N5        29.72R
GREAT BEND     CLEAR     46  36  68 NE6       29.71R
LIBERAL        CLEAR     54  33  45 NE5       29.73R
$$

KSZ066>073-081>083-090>101-270300-
SOUTHEAST KANSAS

CITY           SKY/WX    TMP DP  RH WIND       PRES   REMARKS
CHANUTE        CLOUDY    47  40  76 NW3       29.68R
COFFEYVILLE    CLOUDY    51  42  71 W6        29.69R
HUTCHINSON     CLEAR     47  36  65 N6        29.70R
MEDICINE LODGE   N/A     49  35  58 NE3       29.71R
NEWTON         CLOUDY    48  37  65 N7        29.71R
PARSONS        CLOUDY    48  46  93 CALM      29.69R
WICHITA INTL   MOCLDY    50  37  61 N7        29.70R
WICHITA JABRA  CLEAR     44  36  73 N6        29.70R
WINFIELD       CLEAR     46  39  76 N3        29.71R
$$

KSZ007>012-019>026-033>040-048>060-102>105-270300-
NORTHEAST KANSAS

CITY           SKY/WX    TMP DP  RH WIND       PRES   REMARKS
CONCORDIA      CLEAR     43  33  68 N8        29.71R
EMPORIA        CLOUDY    49  37  63 NW12      29.69R
LAWRENCE       CLOUDY    46  37  71 NW14      29.67R
MANHATTAN      CLOUDY    49  36  61 VRB5      29.69R
OLATHE IND     CLOUDY    45  36  70 NW12      29.65R
OLATHE EXE     CLOUDY    44  38  79 NW12G21   29.64R
SALINA         CLOUDY    49  38  65 N7        29.71R
TOPEKA BILLARD CLOUDY    47  37  68 NW12      29.68R
TOPEKA FORBES  CLOUDY    48  36  63 NW14G30   29.67R
$$




USA.gov is the U.S. government's official web portal to all federal, state and local government web resources and services.